Home   Weather   Perpignan   Past weeks

Flag for France Past Weather in Perpignan, Languedoc-Roussillon, France — Yesterday and Last 2 Weeks

Now
48 °F

Clear.


Feels Like: 45 °F
Forecast: 42 / 60 °F
Wind: 7 mph from West

Location: Perpignan Airport

Current Time: Apr 29, 2017 at 12:17:16 am

Latest Report: Apr 28, 2017 at 11:30 pm


Visibility: 10 mi

Pressure: 30.07 "Hg

Humidity: 54%

Dew Point: 32 °F

Location of PerpignanLocation

Past Weather in Perpignan — Graph

°F

Perpignan Temperature Yesterday

Maximum temperature yesterday: 61 °F (at 3:00 pm)
Minimum temperature yesterday: 45 °F (at 5:30 am)
Average temperature yesterday: 53 °F

High & Low Weather Summary for the Past Weeks

 TemperatureHumidityPressure
High79 °F (Apr 14, 3:30 pm)100% (Apr 25, 7:00 am)30.39 "Hg (Apr 25, 7:00 am)
Low39 °F (Apr 21, 6:00 am)12% (Apr 19, 11:30 am)29.65 "Hg (Apr 25, 6:30 pm)
Average58 °F52%30.08 "Hg
* Reported Apr 13 11:00 pm — Apr 28 11:00 pm, Perpignan, Weather by CustomWeather, © 2017

Note: Actual official high and low records may vary slightly from our data, if they occured in-between our weather recording intervals... More about our weather records

Advertising

Perpignan Weather History for the Previous 24 Hours

Scroll right to see more
 ConditionsComfort  
Time TempWeatherWind HumidityBarometerVisibility
11:00 pm
Fri, Apr 28
52 °FPassing clouds.7 mph47%30.07 "HgN/A
10:30 pm54 °FClear.9 mph44%30.07 "Hg10 mi
10:00 pm54 °FClear.7 mph44%30.07 "Hg10 mi
9:30 pm55 °FClear.8 mph41%30.04 "Hg10 mi
9:00 pm55 °FClear.9 mph38%30.04 "Hg10 mi
8:30 pm57 °FSunny.12 mph36%30.04 "Hg10 mi
8:00 pm59 °FSunny.15 mph34%30.01 "Hg10 mi
7:30 pm59 °FSunny.17 mph34%30.01 "Hg10 mi
7:00 pm59 °FSunny.16 mph31%30.01 "Hg10 mi
6:30 pm61 °FRefreshingly cool.15 mph31%30.01 "HgN/A
6:00 pm61 °FPassing clouds.14 mph31%30.04 "HgN/A
5:30 pm59 °FPartly sunny.17 mph34%30.01 "HgN/A
5:00 pm61 °FPartly sunny.16 mph31%30.01 "HgN/A
4:30 pm61 °FPassing clouds.16 mph31%30.01 "HgN/A
4:00 pm61 °FScattered clouds.17 mph34%30.04 "HgN/A
3:30 pm61 °FPartly sunny.15 mph34%30.04 "HgN/A
3:00 pm61 °FPartly sunny.15 mph31%30.04 "HgN/A
2:30 pm59 °FPartly sunny.15 mph34%30.04 "HgN/A
2:00 pm59 °FScattered clouds.15 mph34%30.04 "HgN/A
1:30 pm59 °FPartly sunny.17 mph36%30.04 "HgN/A
1:00 pm57 °FPartly sunny.14 mph39%30.04 "HgN/A
12:30 pm57 °FScattered clouds.15 mph39%30.04 "HgN/A
12:00 pm57 °FPassing clouds.20 mph39%30.07 "HgN/A
11:30 am55 °FPartly sunny.18 mph38%30.07 "HgN/A
11:00 am54 °FPartly sunny.18 mph44%30.07 "HgN/A
10:30 am54 °FScattered clouds.18 mph44%30.07 "HgN/A
9:30 am52 °FCool.20 mph47%30.07 "HgN/A
9:00 am50 °FSunny.14 mph54%30.07 "Hg10 mi
8:30 am50 °FSunny.14 mph54%30.07 "Hg10 mi
8:00 am48 °FPassing clouds.9 mph54%30.07 "HgN/A
7:30 am46 °FSunny.8 mph57%30.07 "Hg10 mi
7:00 am45 °FSunny.9 mph61%30.07 "Hg10 mi
6:30 am45 °FClear.13 mph61%30.07 "Hg10 mi
6:00 am46 °FClear.12 mph57%30.07 "Hg10 mi
5:30 am45 °FClear.9 mph57%30.07 "Hg10 mi
5:00 am46 °FClear.12 mph53%30.07 "Hg10 mi
4:30 am46 °FClear.13 mph53%30.07 "Hg10 mi
4:00 am46 °FClear.14 mph53%30.07 "Hg10 mi
3:30 am48 °FClear.16 mph46%30.07 "Hg10 mi
3:00 am48 °FClear.18 mph46%30.07 "Hg10 mi
2:30 am48 °FClear.20 mph50%30.04 "Hg10 mi
2:00 am48 °FClear.20 mph50%30.04 "Hg10 mi
1:30 am48 °FCool.21 mph50%30.04 "HgN/A
1:00 am48 °FClear.17 mph50%30.04 "Hg10 mi
12:30 am48 °FClear.13 mph50%30.04 "Hg10 mi
12:00 am48 °FClear.15 mph50%30.04 "Hg10 mi
Weather by CustomWeather, © 2017

See weather overviewHow to use our weather pages